Sisseton, SD

9:41 PM CDT on April 22, 2018 (GMT -0500)
Sisseton

Weather History for K8D3 - May, 2013

Change the Weather History Date:

Saturday, May 11, 2013

  Actual Average Record
Temperature  
Mean Temperature 44 °F 56 °F  
Max Temperature 55 °F 68 °F 89 °F (2004)
Min Temperature 32 °F 43 °F 23 °F (1946)
Degree Days  
Heating Degree Days 21 10  
Month to date heating degree days 198 126  
Since 1 July heating degree days 8958 8085  
Cooling Degree Days 0 1  
Month to date cooling degree days 0 2  
Year to date cooling degree days 0 3  
Moisture  
Dew Point 21 °F    
Average Humidity 46    
Maximum Humidity 70    
Minimum Humidity 22    
Precipitation  
Precipitation 0.00 in 0.09 in 0.95 in (1998)
Month to date precipitation 0.17 0.93  
Year to date precipitation 5.79 5.19  
Sea Level Pressure  
Sea Level Pressure 30.25 in    
Wind  
Wind Speed 18 mph (North)    
Max Wind Speed 36 mph    
Max Gust Speed 43 mph    
T = Trace of Precipitation, MM = Missing Value Source: NWS Daily Summary

Daily Weather History Graph

Daily Weather History Graph

Search for Another Location

Airport or City:

Astronomy

May. 11, 2013 Rise Set
Actual Time 6:01 AM CDT 8:48 PM CDT
Civil Twilight 5:27 AM CDT 9:22 PM CDT
Nautical Twilight 4:43 AM CDT 10:06 PM CDT
Astronomical Twilight 3:53 AM CDT 10:57 PM CDT
Moon 7:08 AM CDT (5/11) 10:31 PM CDT (5/11)
Length of Visible Light 15h 55m
Length of Day
14h 46m
Waxing Crescent, 3% of the Moon is Illuminated
May 11
Waxing Crescent
May 17
First Quarter
May 24
Full
May 31
Last Quarter
Jun 8
New

Hourly Weather History & Observations

Time (CDT) Temp. Windchill Dew Point Humidity Pressure Visibility Wind Dir Wind Speed Gust Speed Precip Events Conditions
12:56 AM 42.1 °F 34.9 °F 27.0 °F 55% 30.14 in - NNW 13.8 mph - N/A   Unknown
1:56 AM 39.9 °F 33.4 °F 23.0 °F 51% 30.15 in - NW 10.4 mph - N/A   Unknown
2:56 AM 39.9 °F 31.8 °F 24.1 °F 53% 30.17 in - NNW 15.0 mph - N/A   Unknown
3:56 AM 37.9 °F 30.0 °F 26.1 °F 62% 30.19 in - NNW 12.7 mph - N/A   Unknown
4:56 AM 37.9 °F 29.2 °F 26.1 °F 62% 30.19 in - NNW 15.0 mph - N/A   Unknown
5:56 AM 37.0 °F 27.0 °F 28.0 °F 70% 30.22 in - North 18.4 mph 24.2 mph N/A   Unknown
6:56 AM 37.9 °F 26.8 °F 28.9 °F 70% 30.25 in - North 24.2 mph 28.8 mph N/A   Unknown
7:56 AM 39.9 °F 29.7 °F 28.9 °F 65% 30.27 in - North 23.0 mph 32.2 mph N/A   Unknown
8:56 AM 42.1 °F 31.5 °F 25.0 °F 51% 30.30 in - North 28.8 mph 35.7 mph N/A   Unknown
9:56 AM 46.0 °F 37.2 °F 27.0 °F 47% 30.29 in - North 26.5 mph 36.8 mph N/A   Unknown
10:56 AM 46.0 °F 36.7 °F 21.0 °F 37% 30.30 in - North 29.9 mph 39.1 mph N/A   Unknown
11:56 AM 48.0 °F - 21.0 °F 34% 30.31 in - North 25.3 mph 34.5 mph N/A   Unknown
12:56 PM 50.0 °F - 19.9 °F 31% 30.31 in - North 25.3 mph 38.0 mph N/A   Unknown
1:56 PM 52.0 °F - 17.1 °F 25% 30.29 in - North 25.3 mph 33.4 mph N/A   Unknown
2:56 PM 53.1 °F - 19.0 °F 26% 30.29 in - North 21.9 mph 32.2 mph N/A   Unknown
3:56 PM 53.1 °F - 16.0 °F 23% 30.27 in - North 23.0 mph 33.4 mph N/A   Unknown
4:56 PM 53.1 °F - 15.1 °F 22% 30.26 in - North 18.4 mph 34.5 mph N/A   Unknown
5:56 PM 53.1 °F - 15.1 °F 22% 30.26 in - North 18.4 mph 31.1 mph N/A   Unknown
6:56 PM 52.0 °F - 16.0 °F 24% 30.26 in - North 23.0 mph 29.9 mph N/A   Unknown
7:56 PM 50.0 °F - 17.1 °F 27% 30.26 in - North 19.6 mph - N/A   Unknown
8:56 PM 46.0 °F 40.2 °F 17.1 °F 31% 30.26 in - North 12.7 mph - N/A   Unknown
9:56 PM 37.9 °F 32.7 °F 19.0 °F 47% 30.27 in - NW 6.9 mph - N/A   Unknown
10:56 PM 37.0 °F 31.0 °F 17.1 °F 44% 30.27 in - NNW 8.1 mph - N/A   Unknown
11:56 PM 35.1 °F 32.2 °F 19.0 °F 52% 30.28 in - North 3.5 mph - N/A   Unknown